DW8750 Weather Reports


Display with metric or nautical units.
time (UTC)temp
F
wind
direction
speed
MPH
gust
MPH
rain 1hr
in
rain 24hr
in
rain mn
in
humidity
%
barometer
mb
20220118064905 52 214 5.0 7.0 0.00 0.00 0.00 76 1029.0
20220118064400 52 209 5.0 7.0 0.00 0.00 0.00 77 1029.0
20220118063853 52 197 5.0 8.0 0.00 0.00 0.00 76 1029.0
20220118063347 52 220 6.0 9.0 0.00 0.00 0.00 76 1028.8
20220118062848 52 208 6.0 9.0 0.00 0.00 0.00 76 1028.7
20220118062351 52 240 6.0 8.0 0.00 0.00 0.00 77 1028.7
20220118061851 52 192 5.0 8.0 0.00 0.00 0.00 77 1028.6
20220118061348 52 222 4.0 7.0 0.00 0.00 0.00 77 1028.6
20220118060851 52 226 4.0 6.0 0.00 0.00 0.00 77 1028.6
20220118060347 53 217 4.0 6.0 0.00 0.00 0.00 76 1028.5
20220118055847 53 248 5.0 7.0 0.00 0.00 0.00 76 1028.4
20220118055347 53 232 5.0 8.0 0.00 0.00 0.00 76 1028.3
20220118054851 53 232 5.0 8.0 0.00 0.00 0.00 76 1028.3
20220118054347 53 238 5.0 9.0 0.00 0.00 0.00 77 1028.2
20220118053852 53 245 5.0 9.0 0.00 0.00 0.00 77 1028.2
20220118053349 53 240 5.0 8.0 0.00 0.00 0.00 76 1028.1
20220118052852 53 272 4.0 8.0 0.00 0.00 0.00 75 1028.2
20220118052342 54 274 4.0 8.0 0.00 0.00 0.00 74 1028.2
20220118051847 54 295 4.0 7.0 0.00 0.00 0.00 74 1028.1
20220118051346 54 319 4.0 8.0 0.00 0.00 0.00 73 1028.2
20220118050844 54 281 4.0 8.0 0.00 0.00 0.00 73 1028.1
20220118050342 54 292 4.0 7.0 0.00 0.00 0.00 73 1028.0
20220118045843 54 284 3.0 7.0 0.00 0.00 0.00 73 1028.1
20220118045348 54 282 3.0 7.0 0.00 0.00 0.00 73 1028.1
20220118044845 54 290 4.0 8.0 0.00 0.00 0.00 72 1028.0
20220118044346 54 329 4.0 8.0 0.00 0.00 0.00 73 1028.0
20220118043839 54 302 3.0 6.0 0.00 0.00 0.00 74 1027.9
20220118043342 54 304 2.0 6.0 0.00 0.00 0.00 75 1027.9
20220118042842 54 324 3.0 5.0 0.00 0.00 0.00 75 1027.9
20220118042340 54 0 4.0 8.0 0.00 0.00 0.00 75 1027.8
20220118041838 54 355 5.0 8.0 0.00 0.00 0.00 75 1027.8
20220118041341 54 17 5.0 8.0 0.00 0.00 0.00 75 1027.8
20220118040839 54 17 5.0 9.0 0.00 0.00 0.00 75 1027.7
20220118040339 54 344 6.0 10.0 0.00 0.00 0.00 74 1027.7
20220118035838 54 344 6.0 10.0 0.00 0.00 0.00 74 1027.7
20220118035338 54 348 5.0 9.0 0.00 0.00 0.00 75 1027.5
20220118034839 54 337 4.0 9.0 0.00 0.00 0.00 75 1027.5
20220118034332 54 355 5.0 8.0 0.00 0.00 0.00 75 1027.5
20220118033832 54 355 5.0 9.0 0.00 0.00 0.00 75 1027.4
20220118033331 54 355 5.0 9.0 0.00 0.00 0.00 75 1027.3
20220118032830 54 344 6.0 11.0 0.00 0.00 0.00 76 1027.4
20220118032328 54 0 6.0 11.0 0.00 0.00 0.00 76 1027.5
20220118031826 54 9 6.0 11.0 0.00 0.00 0.00 77 1027.5
20220118031331 54 343 4.0 9.0 0.00 0.00 0.00 78 1027.4
20220118030827 54 326 3.0 7.0 0.00 0.00 0.00 80 1027.3
20220118030332 54 355 4.0 5.0 0.00 0.00 0.00 80 1027.4
20220118025826 54 355 4.0 7.0 0.00 0.00 0.00 80 1027.3
20220118025330 54 0 4.0 7.0 0.00 0.00 0.00 80 1027.2
20220118024827 54 13 3.0 6.0 0.00 0.00 0.00 80 1027.2
20220118024328 54 5 4.0 9.0 0.00 0.00 0.00 80 1027.3
20220118023827 54 336 6.0 10.0 0.00 0.00 0.00 79 1027.1
20220118023330 54 343 6.0 10.0 0.00 0.00 0.00 79 1027.2
20220118022827 54 327 6.0 9.0 0.00 0.00 0.00 79 1027.2
20220118022328 54 317 6.0 11.0 0.00 0.00 0.00 80 1027.3
20220118021820 54 355 7.0 12.0 0.00 0.00 0.00 80 1027.2
20220118021316 54 332 6.0 12.0 0.00 0.00 0.00 80 1027.2
20220118020807 54 0 3.0 11.0 0.00 0.00 0.00 80 1027.3
20220118020303 54 331 3.0 8.0 0.00 0.00 0.00 78 1027.4
20220118015755 54 303 4.0 8.0 0.00 0.00 0.00 78 1027.5
20220118015250 54 300 4.0 8.0 0.00 0.00 0.00 77 1027.5
20220118014748 54 245 5.0 8.0 0.00 0.00 0.00 76 1027.5
20220118014239 54 258 5.0 8.0 0.00 0.00 0.00 77 1027.5
20220118013732 54 257 5.0 8.0 0.00 0.00 0.00 76 1027.6
20220118013230 53 230 5.0 9.0 0.00 0.00 0.00 76 1027.6
20220118012720 53 236 5.0 9.0 0.00 0.00 0.00 76 1027.7
20220118012225 53 209 5.0 8.0 0.00 0.00 0.00 75 1027.5
20220118011711 53 228 5.0 9.0 0.00 0.00 0.00 75 1027.5
20220118011206 53 204 4.0 9.0 0.00 0.00 0.00 76 1027.5
20220118010656 52 208 4.0 6.0 0.00 0.00 0.00 77 1027.4
20220118010150 52 215 4.0 7.0 0.00 0.00 0.00 78 1027.4
20220118005644 52 211 5.0 7.0 0.00 0.00 0.00 79 1027.3
20220118005138 52 202 5.0 7.0 0.00 0.00 0.00 78 1027.3
20220118004631 52 202 5.0 7.0 0.00 0.00 0.00 78 1027.2
20220118004127 52 202 5.0 7.0 0.00 0.00 0.00 77 1027.2
20220118003620 52 202 5.0 8.0 0.00 0.00 0.00 77 1027.2
20220118003115 52 205 6.0 8.0 0.00 0.00 0.00 78 1027.1
20220118002608 52 203 5.0 8.0 0.00 0.00 0.00 78 1027.1
20220118002106 52 202 5.0 7.0 0.00 0.00 0.00 78 1027.1
20220118001556 53 231 5.0 7.0 0.00 0.00 0.00 78 1027.0
20220118001051 52 224 5.0 8.0 0.00 0.00 0.00 79 1027.1
20220118000544 52 234 5.0 8.0 0.00 0.00 0.00 79 1027.0
20220118000039 52 229 5.0 8.0 0.00 0.00 0.00 79 1026.9
20220117235534 52 239 5.0 8.0 0.00 0.00 0.00 79 1027.0
20220117235030 52 238 4.0 8.0 0.00 0.00 0.00 79 1027.0
20220117234521 52 235 4.0 7.0 0.00 0.00 0.00 79 1027.0
20220117234019 53 213 5.0 8.0 0.00 0.00 0.00 78 1027.0
20220117233514 52 200 5.0 8.0 0.00 0.00 0.00 79 1027.1
20220117233006 53 219 4.0 7.0 0.00 0.00 0.00 79 1027.2
20220117232457 52 209 4.0 7.0 0.00 0.00 0.00 79 1027.3
20220117231952 53 221 3.0 4.0 0.00 0.00 0.00 79 1027.2
20220117231446 53 217 3.0 5.0 0.00 0.00 0.00 79 1027.3
20220117230939 53 206 3.0 5.0 0.00 0.00 0.00 79 1027.3
20220117230432 53 206 2.0 4.0 0.00 0.00 0.00 79 1027.2
20220117225930 53 232 1.0 4.0 0.00 0.00 0.00 79 1027.1
20220117225422 53 232 3.0 5.0 0.00 0.00 0.00 78 1027.0
20220117224915 53 225 4.0 6.0 0.00 0.00 0.00 78 1026.9
20220117224408 52 191 4.0 6.0 0.00 0.00 0.00 79 1027.1
20220117223901 53 211 4.0 6.0 0.00 0.00 0.00 78 1027.0
20220117223357 53 221 4.0 9.0 0.00 0.00 0.00 79 1027.0
20220117222851 53 281 4.0 9.0 0.00 0.00 0.00 78 1026.9
20220117222346 53 273 4.0 9.0 0.00 0.00 0.00 78 1027.1
20220117221841 53 304 5.0 9.0 0.00 0.00 0.00 77 1027.1
20220117221340 53 284 4.0 8.0 0.00 0.00 0.00 78 1027.2
20220117220838 53 278 4.0 8.0 0.00 0.00 0.00 77 1027.3
20220117220334 53 270 4.0 7.0 0.00 0.00 0.00 77 1027.3
20220117215835 53 251 4.0 7.0 0.00 0.00 0.00 77 1027.4
20220117215333 53 269 4.0 8.0 0.00 0.00 0.00 77 1027.4
20220117214836 53 240 3.0 8.0 0.00 0.00 0.00 77 1027.3
20220117214333 53 249 3.0 5.0 0.00 0.00 0.00 77 1027.3
20220117213833 52 239 4.0 8.0 0.00 0.00 0.00 77 1027.2
20220117213336 53 232 5.0 9.0 0.00 0.00 0.00 76 1027.1
20220117212833 53 238 6.0 9.0 0.00 0.00 0.00 75 1027.0
20220117212335 53 229 6.0 9.0 0.00 0.00 0.00 76 1026.9
20220117211831 52 244 5.0 8.0 0.00 0.00 0.00 76 1027.0
20220117211332 52 227 5.0 8.0 0.00 0.00 0.00 77 1027.1
20220117210831 52 229 5.0 9.0 0.00 0.00 0.00 77 1027.2
20220117210332 51 232 6.0 9.0 0.00 0.00 0.00 79 1027.2
20220117205831 51 214 5.0 7.0 0.00 0.00 0.00 79 1027.2
20220117205336 51 224 4.0 7.0 0.00 0.00 0.00 79 1027.3
20220117204828 51 197 4.0 7.0 0.00 0.00 0.00 79 1027.2
20220117204322 51 209 5.0 7.0 0.00 0.00 0.00 79 1027.3
20220117203825 51 194 5.0 6.0 0.00 0.00 0.00 79 1027.2
20220117203326 51 182 4.0 6.0 0.00 0.00 0.00 79 1027.1
20220117202823 51 203 4.0 6.0 0.00 0.00 0.00 78 1027.1
20220117202325 52 226 5.0 8.0 0.00 0.00 0.00 77 1027.1
20220117201826 52 210 6.0 8.0 0.00 0.00 0.00 77 1027.1
20220117201324 52 197 5.0 7.0 0.00 0.00 0.00 77 1027.2
20220117200824 52 206 5.0 8.0 0.00 0.00 0.00 77 1027.2
20220117200323 52 215 5.0 8.0 0.00 0.00 0.00 78 1027.1
20220117195828 52 209 5.0 7.0 0.00 0.00 0.00 78 1027.0
20220117195324 52 219 5.0 7.0 0.00 0.00 0.00 77 1027.0
20220117194821 52 215 5.0 7.0 0.00 0.00 0.00 77 1026.7
20220117194318 52 224 4.0 7.0 0.00 0.00 0.00 77 1026.9
20220117193818 52 208 4.0 7.0 0.00 0.00 0.00 77 1026.9
20220117193322 52 220 4.0 7.0 0.00 0.00 0.00 77 1027.0
20220117192819 53 219 5.0 7.0 0.00 0.00 0.00 77 1026.7
20220117192323 53 219 4.0 7.0 0.00 0.00 0.00 77 1027.0
20220117191820 53 198 4.0 7.0 0.00 0.00 0.00 76 1026.9
20220117191324 53 227 5.0 9.0 0.00 0.00 0.00 76 1026.6
20220117190817 53 221 5.0 9.0 0.00 0.00 0.00 77 1026.5
20220117190314 53 217 5.0 8.0 0.00 0.00 0.00 77 1026.5
20220117185816 53 201 4.0 7.0 0.00 0.00 0.00 76 1026.6
20220117185315 53 256 4.0 7.0 0.00 0.00 0.00 76 1026.5
20220117184815 53 237 4.0 7.0 0.00 0.00 0.00 76 1026.5
20220117184315 54 223 4.0 7.0 0.00 0.00 0.00 76 1026.4
20220117183814 54 207 4.0 7.0 0.00 0.00 0.00 76 1026.4
20220117183315 54 226 4.0 6.0 0.00 0.00 0.00 76 1026.4
20220117182817 54 202 4.0 6.0 0.00 0.00 0.00 76 1026.4
20220117182317 54 219 4.0 7.0 0.00 0.00 0.00 76 1026.5
20220117181811 54 236 4.0 7.0 0.00 0.00 0.00 76 1026.3
20220117181310 54 229 4.0 8.0 0.00 0.00 0.00 76 1026.4
20220117180811 54 252 4.0 8.0 0.00 0.00 0.00 76 1026.4
20220117180312 54 253 3.0 7.0 0.00 0.00 0.00 77 1026.3
20220117175813 54 250 3.0 7.0 0.00 0.00 0.00 77 1026.2
20220117175306 54 273 2.0 4.0 0.00 0.00 0.00 76 1026.2
20220117174800 54 223 3.0 8.0 0.00 0.00 0.00 76 1026.0
20220117174254 54 294 5.0 10.0 0.00 0.00 0.00 74 1026.0
20220117173746 55 301 6.0 10.0 0.00 0.00 0.00 74 1025.9
20220117173245 55 300 6.0 10.0 0.00 0.00 0.00 74 1025.8
20220117172737 55 279 5.0 8.0 0.00 0.00 0.00 75 1025.7
20220117172231 55 327 4.0 8.0 0.00 0.00 0.00 75 1025.7
20220117171725 55 289 5.0 10.0 0.00 0.00 0.00 75 1025.7
20220117171219 55 307 6.0 10.0 0.00 0.00 0.00 74 1025.6
20220117170715 55 295 5.0 8.0 0.00 0.00 0.00 75 1025.7
20220117170207 55 317 5.0 9.0 0.00 0.00 0.00 75 1025.6
20220117165701 55 349 5.0 9.0 0.00 0.00 0.00 75 1025.6
20220117165156 55 304 5.0 9.0 0.00 0.00 0.00 75 1025.6
20220117164648 55 322 6.0 10.0 0.00 0.00 0.00 74 1025.5
20220117164142 55 325 7.0 11.0 0.00 0.00 0.00 74 1025.5
20220117163637 55 332 7.0 11.0 0.00 0.00 0.00 75 1025.6
20220117163131 55 316 8.0 11.0 0.00 0.00 0.00 75 1025.6
20220117162629 55 323 8.0 16.0 0.00 0.00 0.00 75 1025.6
20220117162122 55 293 8.0 16.0 0.00 0.00 0.00 75 1025.5
20220117161618 55 317 6.0 12.0 0.00 0.00 0.00 75 1025.5
20220117161108 55 303 7.0 12.0 0.00 0.00 0.00 75 1025.5
20220117160601 55 313 7.0 13.0 0.00 0.00 0.00 75 1025.4
20220117160055 55 331 6.0 13.0 0.00 0.00 0.00 76 1025.5
20220117155549 55 350 7.0 12.0 0.00 0.00 0.00 76 1025.4
20220117155043 55 304 8.0 14.0 0.00 0.00 0.00 76 1025.5
20220117154536 55 319 7.0 14.0 0.00 0.00 0.00 75 1025.5
20220117154030 55 320 7.0 12.0 0.00 0.00 0.00 75 1025.4
20220117153524 56 296 7.0 12.0 0.00 0.00 0.00 75 1025.4
20220117153020 56 336 8.0 14.0 0.00 0.00 0.00 75 1025.3
20220117152517 56 327 8.0 14.0 0.00 0.00 0.00 75 1025.2
20220117152007 56 308 8.0 13.0 0.00 0.00 0.00 75 1025.3
20220117151500 56 304 9.0 17.0 0.00 0.00 0.00 74 1025.3
20220117150954 56 315 10.0 17.0 0.00 0.00 0.00 74 1025.2
20220117150448 57 315 9.0 16.0 0.00 0.00 0.00 75 1025.3
20220117145947 57 298 8.0 15.0 0.00 0.00 0.00 75 1025.3
20220117145437 57 331 8.0 15.0 0.00 0.00 0.00 76 1025.4
20220117144931 57 342 9.0 15.0 0.00 0.00 0.00 76 1025.5
20220117144424 56 312 10.0 15.0 0.00 0.00 0.00 74 1025.5
20220117143918 57 296 9.0 14.0 0.00 0.00 0.00 76 1025.5
20220117143412 57 321 8.0 14.0 0.00 0.00 0.00 75 1025.6
20220117142913 57 351 7.0 13.0 0.00 0.00 0.00 77 1025.7
20220117142409 56 315 7.0 12.0 0.00 0.00 0.00 77 1025.5
20220117141908 56 320 7.0 11.0 0.00 0.00 0.00 76 1025.5
20220117141411 56 296 8.0 16.0 0.00 0.00 0.00 75 1025.5
20220117140908 56 304 8.0 16.0 0.00 0.00 0.00 75 1025.6
20220117140411 56 347 8.0 13.0 0.00 0.00 0.00 74 1025.6
20220117135908 56 289 9.0 13.0 0.00 0.00 0.00 74 1025.6
20220117135415 56 305 9.0 15.0 0.00 0.00 0.00 74 1025.6
20220117134910 56 315 9.0 15.0 0.00 0.00 0.00 73 1025.6
20220117134408 56 322 9.0 14.0 0.00 0.00 0.00 73 1025.6
20220117133909 57 289 10.0 15.0 0.00 0.00 0.00 73 1025.7
20220117133408 57 338 10.0 15.0 0.00 0.00 0.00 73 1025.7
20220117132910 57 328 9.0 15.0 0.00 0.00 0.00 73 1025.6
20220117132409 57 344 9.0 16.0 0.00 0.00 0.00 74 1025.5
20220117131910 57 327 9.0 16.0 0.00 0.00 0.00 74 1025.5
20220117131413 57 323 10.0 17.0 0.00 0.00 0.00 76 1025.4
20220117130907 57 309 10.0 17.0 0.00 0.00 0.00 78 1025.5
20220117130407 57 304 9.0 16.0 0.00 0.00 0.00 78 1025.6
20220117125905 57 297 9.0 16.0 0.00 0.00 0.00 78 1025.6
20220117125404 57 323 11.0 16.0 0.00 0.00 0.00 77 1025.8
20220117124906 57 355 10.0 15.0 0.00 0.00 0.00 78 1025.9
20220117124404 57 299 10.0 15.0 0.00 0.00 0.00 77 1025.8
20220117123906 57 311 10.0 15.0 0.00 0.00 0.00 77 1025.8
20220117123405 57 317 11.0 16.0 0.00 0.00 0.00 77 1025.9
20220117122913 57 301 10.0 16.0 0.00 0.00 0.00 77 1025.8
20220117122402 57 321 9.0 15.0 0.00 0.00 0.00 76 1026.1
20220117121903 58 299 9.0 14.0 0.00 0.00 0.00 76 1026.1
20220117121400 57 355 9.0 15.0 0.00 0.00 0.00 77 1026.0
20220117120859 57 325 9.0 15.0 0.00 0.00 0.00 77 1026.0
20220117120404 57 311 9.0 15.0 0.00 0.00 0.00 76 1026.2
20220117115900 57 327 10.0 15.0 0.00 0.00 0.00 76 1026.3
20220117115401 57 340 9.0 14.0 0.00 0.00 0.00 75 1026.4
20220117114859 57 295 9.0 13.0 0.00 0.00 0.00 75 1026.4
20220117114405 57 311 9.0 14.0 0.00 0.00 0.00 75 1026.4
20220117113854 58 318 8.0 14.0 0.00 0.00 0.00 74 1026.4
20220117113350 57 306 9.0 13.0 0.00 0.00 0.00 74 1026.5
20220117112841 57 295 8.0 14.0 0.00 0.00 0.00 74 1026.3
20220117112337 58 302 8.0 14.0 0.00 0.00 0.00 74 1026.4
20220117111838 57 290 9.0 12.0 0.00 0.00 0.00 75 1026.4
20220117111337 57 311 8.0 12.0 0.00 0.00 0.00 76 1026.9
20220117110836 58 304 8.0 12.0 0.00 0.00 0.00 73 1027.0
20220117110337 58 296 9.0 13.0 0.00 0.00 0.00 74 1027.1
20220117105835 58 314 8.0 13.0 0.00 0.00 0.00 74 1027.2
20220117105335 58 348 8.0 12.0 0.00 0.00 0.00 74 1026.6
20220117104837 58 316 7.0 12.0 0.00 0.00 0.00 75 1026.5
20220117104335 57 336 7.0 11.0 0.00 0.00 0.00 76 1026.6
20220117103839 57 309 6.0 11.0 0.00 0.00 0.00 76 1026.9
20220117103335 57 319 5.0 10.0 0.00 0.00 0.00 76 1027.0
20220117102836 57 331 4.0 10.0 0.00 0.00 0.00 77 1027.0
20220117102335 57 317 5.0 9.0 0.00 0.00 0.00 78 1027.0
20220117101837 56 355 6.0 11.0 0.00 0.00 0.00 77 1026.7
20220117101337 56 321 7.0 11.0 0.00 0.00 0.00 78 1026.7
20220117100839 56 298 7.0 11.0 0.00 0.00 0.00 77 1026.7
20220117100331 56 306 5.0 11.0 0.00 0.00 0.00 78 1026.7
20220117095823 56 315 6.0 12.0 0.00 0.00 0.00 78 1027.1
20220117095320 56 302 7.0 12.0 0.00 0.00 0.00 77 1027.0
20220117094814 56 288 6.0 10.0 0.00 0.00 0.00 77 1027.3
20220117094307 56 315 5.0 10.0 0.00 0.00 0.00 76 1027.5
20220117093802 56 319 7.0 11.0 0.00 0.00 0.00 77 1027.9
20220117093256 56 308 8.0 11.0 0.00 0.00 0.00 76 1027.9
20220117092751 57 300 6.0 11.0 0.00 0.00 0.00 75 1028.2
20220117092243 57 338 4.0 11.0 0.00 0.00 0.00 76 1028.1
20220117091736 57 299 4.0 8.0 0.00 0.00 0.00 76 1028.3
20220117091240 56 285 5.0 8.0 0.00 0.00 0.00 75 1028.1
20220117090723 56 279 5.0 10.0 0.00 0.00 0.00 74 1028.0
20220117090222 56 288 4.0 10.0 0.00 0.00 0.00 74 1028.0
20220117085712 56 300 5.0 8.0 0.00 0.00 0.00 73 1027.2
20220117085205 56 299 5.0 8.0 0.00 0.00 0.00 72 1026.9
20220117084702 56 288 3.0 7.0 0.00 0.00 0.00 72 1027.4
20220117084152 56 261 3.0 7.0 0.00 0.00 0.00 71 1027.5
20220117083643 56 288 3.0 7.0 0.00 0.00 0.00 71 1027.7
20220117083141 56 311 3.0 7.0 0.00 0.00 0.00 70 1027.5
20220117082633 56 319 3.0 6.0 0.00 0.00 0.00 70 1027.3
20220117082129 56 317 3.0 6.0 0.00 0.00 0.00 71 1027.1
20220117081623 56 267 2.0 4.0 0.00 0.00 0.00 70 1027.0
20220117081113 56 227 2.0 4.0 0.00 0.00 0.00 70 1026.9
20220117080607 55 212 2.0 3.0 0.00 0.00 0.00 70 1026.7
20220117080109 55 233 2.0 4.0 0.00 0.00 0.00 70 1026.9
20220117075557 55 248 2.0 4.0 0.00 0.00 0.00 69 1026.9
20220117075052 55 248 2.0 4.0 0.00 0.00 0.00 70 1027.0
20220117074545 55 252 3.0 4.0 0.00 0.00 0.00 73 1026.7
20220117074041 55 209 3.0 4.0 0.00 0.00 0.00 75 1026.7
20220117073535 54 194 3.0 4.0 0.00 0.00 0.00 74 1026.7
20220117073038 54 207 3.0 4.0 0.00 0.00 0.00 76 1026.6
20220117072535 54 194 3.0 5.0 0.00 0.00 0.00 76 1026.6
20220117072039 54 213 3.0 5.0 0.00 0.00 0.00 76 1026.7
20220117071531 53 214 3.0 5.0 0.00 0.00 0.00 77 1026.7
20220117071034 53 215 3.0 5.0 0.00 0.00 0.00 78 1026.7
20220117070531 52 208 4.0 5.0 0.00 0.00 0.00 78 1026.7
20220117070040 52 201 4.0 6.0 0.00 0.00 0.00 79 1026.7
20220117065530 52 184 4.0 6.0 0.00 0.00 0.00 79 1026.7
20220117065030 52 199 4.0 5.0 0.00 0.00 0.00 78 1026.7